Regional Weather Roundup
Issued by NWS

Home | Current Version | Previous Version | Graphics & Text | Print | Product List | Glossary On
Versions: 1 2 3 4 5 6 7 8 9 10 11 12 13 14 15 16 17 18 19 20 21 22 23 24 25 26 27 28 29 30 31 32 33 34 35 36 37 38 39 40 41 42 43 44 45 46 47 48 49 50
000
ASUS45 KCYS 010810
RWRWY

WYOMING REGIONAL WEATHER ROUNDUP
NATIONAL WEATHER SERVICE CHEYENNE WY
200 AM MDT TUE SEP 01 2015

NOTE:  "FAIR" INDICATES FEW OR NO CLOUDS BELOW 12,000 FEET
WITH NO SIGNIFICANT WEATHER AND/OR OBSTRUCTIONS TO VISIBILITY.

WYZ001-010900-
YELLOWSTONE NATIONAL PARK

CITY           SKY/WX    TMP DP  RH WIND       PRES   REMARKS
LK YELLOWSTONE   N/A     35  27  72 NW3       30.21F
W YELLOWSTONE  NOT AVBL

$$
WYZ002>013-054>058-071-098>099-010900-
NORTHERN WYOMING

CITY           SKY/WX    TMP DP  RH WIND       PRES   REMARKS
JACKSON        FAIR      41  32  70 CALM      30.14S
CODY           FAIR      57  30  35 CALM      29.97F
GREYBULL       FAIR      58  34  40 SE5       29.91S
WORLAND        FAIR      58  29  33 S9        29.94S
SHERIDAN       FAIR      52  43  71 SW5       29.91F
BUFFALO        FAIR      61  40  45 NW5       29.98F
GILLETTE       FAIR      51  48  89 W6        29.93S
HULETT         FAIR      55  52  88 CALM      29.94F
NEWCASTLE      FAIR      66  43  42 MISG      29.96F

$$
WYZ014>020-022>026-101>103-010900-
CENTRAL WYOMING

CITY           SKY/WX    TMP DP  RH WIND       PRES   REMARKS
BIG PINEY      FAIR      43  26  51 N9        30.19F
PINEDALE       FAIR      36  28  75 W6        30.20F WCI  31
DUBOIS         FAIR      46  23  39 W12       30.15F
LANDER         FAIR      60  26  27 NW5       30.04S
RIVERTON       FAIR      58  24  27 SW10      30.04F
CASPER         FAIR      64  39  39 SW12      30.04S
DOUGLAS        FAIR      62  42  47 E5        30.02F

$$
WYZ021-027>030-104>119-010900-
SOUTHERN WYOMING

CITY           SKY/WX    TMP DP  RH WIND       PRES   REMARKS
EVANSTON       FAIR      58  37  45 SE7       30.19F
KEMMERER       FAIR      45  30  57 N9        30.20F
FORT BRIDGER   SUNNY     55  41  58 W7        30.20F
ROCK SPRINGS   FAIR      59  40  49 S9        30.17F
DIXON          FAIR      51  45  81 CALM      30.23F
RAWLINS        FAIR      60  39  45 SW9       30.17F
SARATOGA       FAIR      52  45  76 S6        30.22S
LARAMIE        FAIR      47  42  83 SE10      30.21F
CHEYENNE       FAIR      55  46  71 CALM      30.14F
TORRINGTON     FAIR      61  48  62 S3        29.99F
PINE BLUFFS    FAIR      52  46  82 S3        30.10F

$$


USA.gov is the U.S. government's official web portal to all federal, state and local government web resources and services.